Powrót do katalogu

COSMOS 2251 DEB

AktywnyLEO
NORAD 34579·DEBRIS·🇷🇺 Russia

Wystrzelony Jun 16, 1993 z Plesetsk Cosmodrome

Loading…

Następne Przeloty (najbliższe 24 godziny)

TLE

ŚwieżeSource: Space-Track

Epoka: Sep 14, 2026, 06:38 UTC

1 34579U 93036VR  26257.27679250  .00000833  00000-0  24039-3 0  9994
2 34579  74.0510  70.5643 0026092  71.3746 349.9010 14.46014053921566

Śledź COSMOS 2251 DEB w czasie rzeczywistym z AllMySat

Download on the App Store